Regional Weather Roundup
Issued by NWS Cleveland, OH

Home | Current Version | Previous Version | Graphics & Text | Print | Product List | Glossary On
Versions: 1 2 3 4 5 6 7 8 9 10 11 12 13 14 15 16 17 18 19 20 21 22 23 24 25 26 27 28 29 30 31 32 33 34 35 36 37 38 39 40 41 42 43 44 45 46 47 48 49 50
000
ASUS41 KCLE 230312
RWRCLE
OHIO REGIONAL WEATHER ROUNDUP
NATIONAL WEATHER SERVICE WILMINGTON, OH
1100 PM EDT TUE AUG 22 2017

NOTE: "FAIR" INDICATES FEW OR NO CLOUDS BELOW 12,000 FEET WITH NO
SIGNIFICANT WEATHER AND/OR OBSTRUCTIONS TO VISIBILITY.

OHZ001>008-015>018-024>027-034-035-043-044-230400-
   NORTHWEST OHIO

CITY           SKY/WX    TMP DP  RH WIND       PRES   REMARKS
DEFIANCE       FAIR      65  53  65 CALM      29.95R
FINDLAY        FAIR      67  56  67 NW9       29.92R
TOLEDO EXPRESS FAIR      64  56  75 W9        29.92R
TOLEDO EXEC    FAIR      66  55  67 NW9       29.92R
LIMA           FAIR      67  60  78 NW8       29.95R
$$

OHZ009>014-019>023-028>033-038-089-230400-
   NORTHEAST OHIO

CITY           SKY/WX    TMP DP  RH WIND       PRES   REMARKS
CLE-HOPKINS    FAIR      70  65  84 N6        29.89S
CLE-LAKEFRONT  MOCLDY    73  62  68 N16       29.85S
CUY CO. ARPT   MOCLDY    73  63  68 N9        29.88R
LORAIN-ELYRIA  MOCLDY    67  61  81 W5        29.89R
ASHTABULA      MOCLDY    69  63  81 N7        29.88R
AKRON-CANTON   CLOUDY    69  65  86 W6        29.89S
WOOSTER        FAIR      67  66  97 W6        29.91R
MANSFIELD      FAIR      67  66  97 W7        29.92R
YOUNGSTOWN     MOCLDY    67  65  93 W7        29.87R
$$

OHZ042-051>053-060>062-070>072-077>081-230400-
  SOUTHWEST OHIO

CITY           SKY/WX    TMP DP  RH WIND       PRES   REMARKS
CINC-COVINGTON CLOUDY    71  71 100 SW5       29.95R
CINC-LUNKEN    FAIR      70  69  97 CALM      29.94R
HAMILTON       FAIR      73  67  81 NW9       29.95R
DAYTON         FAIR      68  64  87 NW6       29.96R
WRIGHT-PAT AFB FAIR      72  67  83 NW6       29.94R
DAYTON GENERAL FAIR      72  65  78 NW6       29.94R
WILMINGTON     FAIR      72  68  87 W5        29.94R
$$

OHZ036-037-039>041-045>050-054>059-063>069-073>076-082>088-230400-
  CENTRAL AND SOUTHEAST OHIO

CITY           SKY/WX    TMP DP  RH WIND       PRES   REMARKS
COLUMBUS       MOCLDY    74  66  76 NW9       29.91R
OSU AIRPORT    FAIR      71  66  84 NW7       29.91S
BOLTON FIELD   FAIR      71  67  87 NW6       29.92S
RICKENBACK AFB FAIR      70  68  96 W5        29.91S
NEWARK         CLOUDY    73  67  81 NW5       29.91R
MARION         MOCLDY    68  64  87 NW7       29.93R
LANCASTER      FAIR      71  68  90 SW5       29.91F
ZANESVILLE     FAIR      71  67  87 W5        29.90S
NEW PHILLY     MOCLDY    71  67  87 W6        29.90R
$$



USA.gov is the U.S. government's official web portal to all federal, state and local government web resources and services.